User: anonymous   Login
Location: Albany
(35.0000°S, 118.0000°E)
Time: 19:42:50
(UTC-04:00)
Language:

Cosmos 1758 Rocket - Orbit

View from above orbital plane
View from above orbital plane
View from above satellite
View from above satellite

Ground track
Ground track

The orbit data is extracted from the following two-line orbital elements,

1 16792U 86046B   16180.53261156 +.00000100 +00000-0 +92882-5 0  9999
2 16792 082.4817 175.1580 0024824 021.1127 097.9959 14.83073893622462
Epoch (UTC): 28 June 2016 12:46:57
Eccentricity: 0.0024824
inclination: 82.4817°
perigee height: 602 km
apogee height: 637 km
right ascension of ascending node: 175.1580°
argument of perigee: 21.1127°
revolutions per day: 14.83073893
mean anomaly at epoch: 97.9959°
orbit number at epoch: 62246

The dashed part of the orbit path shows where the satellite is in the earth's shadow,  

DLR